{"data":{"norad_id":68524,"intl_designator":"2026-068S","name":"STARLINK-36302","alt_names":[],"object_type":"PAYLOAD","status":"ACTIVE","operator":null,"country":"US","launch_date":"2026-03-30","launch_site_code":"AFETR","launch_vehicle":null,"mission":null,"orbit_class":"UNKNOWN","rcs_meters":null,"size_class":null,"mass_kg":null,"dimensions":null,"purposes":["comms"],"wikipedia_slug":null,"has_3d_model":false,"image_url":null,"decayed_at":null,"tle_current":{"epoch":"2026-09-19T18:17:54.609504Z","epoch_age_seconds":112134,"freshness":"FRESH","line1":"1 68524U 26068S   26262.76243761  .00009684  00000+0  29744-3 0  9996","line2":"2 68524  53.1591 303.1883 0001289  82.4623 277.6526 15.34394305 26721","mean_motion":15.34394305,"eccentricity":0.0001289,"inclination_deg":53.1591,"raan_deg":303.1883,"arg_perigee_deg":82.4623,"mean_anomaly_deg":277.6526,"bstar":0.00029744,"rev_number":2672,"period_min":93.848106403132,"perigee_km":461.8383805108,"apogee_km":463.60195348845,"semimajor_km":6840.8571669996,"source":"CELESTRAK","updated_at":"2026-09-20T09:00:43.905525Z"}}}